Jackson Hawkins Field, MS

12:24 PM CDT on September 23, 2017 (GMT -0500)
Hawkins

Weather History for KHKS - December, 2013

Change the Weather History Date:

Monday, December 9, 2013

  Actual Average (KJAN) Record (KJAN)
Temperature  
Mean Temperature 40 °F -  
Max Temperature 42 °F 62 °F 80 °F (1972)
Min Temperature 37 °F 38 °F 14 °F (1917)
Degree Days  
Heating Degree Days 26    
Moisture  
Dew Point 38 °F    
Average Humidity 93    
Maximum Humidity 100    
Minimum Humidity 87    
Precipitation  
Precipitation 0.24 in - - ()
Sea Level Pressure  
Sea Level Pressure 30.15 in    
Wind  
Wind Speed 5 mph (North)    
Max Wind Speed 9 mph    
Max Gust Speed -    
Visibility 5 miles    
Events Rain    
Averages and records for this station are not official NWS values.
T = Trace of Precipitation, MM = Missing Value Source: NWS Daily Summary

Daily Weather History Graph

Daily Weather History Graph

Search for Another Location

Airport or City:

Trip Planner

Search our weather history database for the weather conditions in past years. The results will help you decide how hot, cold, wet, or windy it might be!

Date:

Astronomy

Dec. 09, 2013 Rise Set
Actual Time 6:50 AM CST 4:55 PM CST
Civil Twilight 6:23 AM CST 5:22 PM CST
Nautical Twilight 5:53 AM CST 5:53 PM CST
Astronomical Twilight 5:23 AM CST 6:23 PM CST
Moon 12:03 PM CST (12/9) No Moon Set
Length of Visible Light 10h 59m
Length of Day
10h 05m
Waxing Crescent, 51% of the Moon is Illuminated
Dec 9
Waxing Crescent
Dec 17
Full
Dec 25
Last Quarter
Jan 1
New
Jan 7
First Quarter

Hourly Weather History & Observations

Time (CST) Temp. Windchill Dew Point Humidity Pressure Visibility Wind Dir Wind Speed Gust Speed Precip Events Conditions
12:41 AM 42.8 °F - 41.0 °F 93% 30.11 in 3.0 mi Calm Calm - N/A   Overcast
12:53 AM 42.1 °F 39.2 °F 39.9 °F 92% 30.11 in 4.0 mi WNW 4.6 mph - N/A   Overcast
1:53 AM 42.1 °F 38.4 °F 39.9 °F 92% 30.11 in 3.0 mi Variable 5.8 mph - N/A   Overcast
2:00 AM 42.8 °F 40.1 °F 39.2 °F 87% 30.12 in 1.8 mi Variable 4.6 mph - N/A   Overcast
2:53 AM 41.0 °F 37.1 °F 39.9 °F 96% 30.13 in 1.5 mi NNW 5.8 mph - N/A   Overcast
3:53 AM 41.0 °F 37.1 °F 39.0 °F 93% 30.13 in 1.2 mi NNW 5.8 mph - N/A   Overcast
4:13 AM 39.2 °F 34.2 °F 39.2 °F 100% 30.15 in 2.5 mi NNW 6.9 mph - N/A   Overcast
4:22 AM 39.2 °F 34.2 °F 39.2 °F 100% 30.15 in 4.0 mi NNW 6.9 mph - N/A   Overcast
4:37 AM 39.2 °F 34.2 °F 39.2 °F 100% 30.14 in 2.0 mi North 6.9 mph - N/A   Overcast
4:53 AM 39.9 °F 36.7 °F 39.0 °F 97% 30.14 in 1.8 mi NNW 4.6 mph - N/A   Overcast
5:04 AM 39.2 °F 33.6 °F 37.4 °F 93% 30.16 in 2.0 mi North 8.1 mph - N/A   Overcast
5:23 AM 39.2 °F 34.2 °F 37.4 °F 93% 30.15 in 3.0 mi North 6.9 mph - N/A   Overcast
5:53 AM 39.0 °F 36.8 °F 37.0 °F 93% 30.16 in 7.0 mi Variable 3.5 mph - N/A   Overcast
6:32 AM 39.2 °F 37.0 °F 37.4 °F 93% 30.19 in 8.0 mi Variable 3.5 mph - N/A   Overcast
6:53 AM 39.0 °F 35.7 °F 37.0 °F 93% 30.18 in 9.0 mi NNE 4.6 mph - N/A   Overcast
7:53 AM 39.0 °F 33.4 °F 37.0 °F 93% 30.17 in 10.0 mi NNE 8.1 mph - N/A   Overcast
8:53 AM 39.9 °F 35.8 °F 37.0 °F 89% 30.18 in 10.0 mi NNE 5.8 mph - N/A   Overcast
9:53 AM 41.0 °F 38.0 °F 37.9 °F 89% 30.21 in 10.0 mi Variable 4.6 mph - N/A   Overcast
10:53 AM 42.1 °F 39.2 °F 39.0 °F 89% 30.21 in 10.0 mi North 4.6 mph - N/A   Overcast
11:53 AM 42.1 °F 38.4 °F 39.0 °F 89% 30.20 in 10.0 mi NNW 5.8 mph - N/A   Overcast
12:53 PM 41.0 °F 38.0 °F 37.9 °F 89% 30.17 in 3.0 mi North 4.6 mph - N/A   Overcast
1:53 PM 41.0 °F 37.1 °F 37.9 °F 89% 30.14 in 8.0 mi North 5.8 mph - N/A   Overcast
2:53 PM 39.9 °F 36.7 °F 37.0 °F 89% 30.14 in 10.0 mi North 4.6 mph - N/A   Overcast
3:53 PM 39.9 °F 35.1 °F 37.0 °F 89% 30.13 in 10.0 mi North 6.9 mph - N/A   Overcast
4:53 PM 39.9 °F 37.8 °F 37.0 °F 89% 30.12 in 10.0 mi North 3.5 mph - N/A   Overcast
5:53 PM 39.0 °F 34.8 °F 37.0 °F 93% 30.13 in 8.0 mi NNW 5.8 mph - N/A   Overcast
6:01 PM 39.2 °F 35.0 °F 37.4 °F 93% 30.13 in 5.0 mi Variable 5.8 mph - 0.00 in Rain Light Rain
6:14 PM 39.2 °F 35.9 °F 37.4 °F 93% 30.13 in 2.5 mi NNE 4.6 mph - 0.00 in Rain Light Rain
6:22 PM 39.2 °F 35.9 °F 37.4 °F 93% 30.13 in 3.0 mi NE 4.6 mph - 0.00 in   Overcast
6:40 PM 39.2 °F 35.9 °F 37.4 °F 93% 30.13 in 2.0 mi NNW 4.6 mph - 0.03 in Rain Rain
6:53 PM 39.9 °F 36.7 °F 37.9 °F 93% 30.11 in 2.0 mi Variable 4.6 mph - 0.06 in Rain Rain
7:01 PM 39.2 °F 35.9 °F 37.4 °F 93% 30.11 in 4.0 mi Variable 4.6 mph - 0.00 in Rain Light Rain
7:53 PM 39.9 °F 37.8 °F 37.9 °F 93% 30.10 in 2.5 mi Variable 3.5 mph - 0.01 in Rain Light Rain
8:05 PM 39.2 °F 35.0 °F 37.4 °F 93% 30.11 in 1.8 mi North 5.8 mph - 0.00 in Rain Light Rain
8:36 PM 39.2 °F 35.9 °F 37.4 °F 93% 30.13 in 2.5 mi NNW 4.6 mph - 0.03 in Rain Light Rain
8:53 PM 39.0 °F 32.8 °F 37.0 °F 93% 30.15 in 3.0 mi WNW 9.2 mph - 0.05 in Rain Light Rain
9:18 PM 39.2 °F 35.9 °F 37.4 °F 93% 30.15 in 2.5 mi Variable 4.6 mph - 0.06 in Rain Heavy Rain
9:31 PM 39.2 °F 33.6 °F 37.4 °F 93% 30.16 in 3.0 mi NW 8.1 mph - 0.09 in Rain Rain
9:53 PM 37.9 °F 32.7 °F 36.0 °F 93% 30.16 in 9.0 mi NNW 6.9 mph - 0.09 in Rain Light Rain
10:53 PM 37.0 °F 32.4 °F 35.1 °F 93% 30.16 in 4.0 mi NNW 5.8 mph - 0.03 in Rain Light Rain
11:53 PM 37.0 °F 31.6 °F 35.1 °F 93% 30.18 in 7.0 mi NNW 6.9 mph - 0.00 in Rain Light Rain